Le nostre stazioni meteo in Italia

Pubblicità
Il mio iltempo24.it
Ustica, Italia (16400): Temperatura & dewpoint: 14.10.2017 09:00:00 - 20.10.2017 09:00:00 (CEST)Ustica, Italia (16400): velocità del vento: 14.10.2017 09:00:00 - 20.10.2017 09:00:00 (CEST)Ustica, Italia (16400): direzione del vento: 14.10.2017 09:00:00 - 20.10.2017 09:00:00 (CEST)Ustica, Italia (16400): reduced air pressure: 14.10.2017 09:00:00 - 20.10.2017 09:00:00 (CEST)Ustica, Italia (16400): visibility: 14.10.2017 09:00:00 - 20.10.2017 09:00:00 (CEST)Ustica, Italia (16400): ore di luce: 14.10.2017 09:00:00 - 20.10.2017 09:00:00 (CEST)
Data & Tempo tt [°C] td [°C] ff [km/h] ff [kn] dd ppp [hPa] vv [km] sd [min]
20.10.2017 09:00:00 - - - - - - - -
20.10.2017 08:00:00 20,0 18,2 21 11 SE 1015,7 20 6
20.10.2017 07:00:00 - - - - - - - -
20.10.2017 06:00:00 - - - - - - - -
20.10.2017 05:00:00 - - - - - - - -
20.10.2017 04:00:00 - - - - - - - -
20.10.2017 03:00:00 - - - - - - - -
20.10.2017 02:00:00 - - - - - - - -
20.10.2017 01:00:00 - - - - - - - -
20.10.2017 00:00:00 - - - - - - - -
19.10.2017 23:00:00 - - - - - - - -
19.10.2017 22:00:00 - - - - - - - -
19.10.2017 21:00:00 - - - - - - - -
19.10.2017 20:00:00 - - - - - - - -
19.10.2017 19:00:00 20,4 19,5 26 14 ESE 1016,1 18 18
19.10.2017 18:00:00 21,4 19,7 16 9 SE 1016,2 18 36
19.10.2017 17:00:00 21,4 18,5 13 7 SE 1016,1 18 36
19.10.2017 16:00:00 21,8 19,5 13 7 E 1016,4 18 48
19.10.2017 15:00:00 22,4 19,8 15 8 SE 1017,0 18 36
19.10.2017 14:00:00 22,2 19,3 11 6 SSE 1017,4 20 48
19.10.2017 13:00:00 22,8 18,7 8 4 ESE 1018,0 20 60
19.10.2017 12:00:00 21,6 19,6 9 5 SSE 1018,1 20 60
19.10.2017 11:00:00 22,0 19,7 8 4 S 1018,0 20 60
19.10.2017 10:00:00 19,8 17,7 8 4 OSO 1018,1 20 60
19.10.2017 09:00:00 19,2 17,1 11 6 S 1017,7 20 48
19.10.2017 08:00:00 19,0 16,9 11 6 NO 1017,4 20 0
19.10.2017 07:00:00 - - - - - - - -
19.10.2017 06:00:00 - - - - - - - -
19.10.2017 05:00:00 - - - - - - - -
19.10.2017 04:00:00 - - - - - - - -
19.10.2017 03:00:00 - - - - - - - -
19.10.2017 02:00:00 - - - - - - - -
19.10.2017 01:00:00 - - - - - - - -
19.10.2017 00:00:00 - - - - - - - -
18.10.2017 23:00:00 - - - - - - - -
18.10.2017 22:00:00 - - - - - - - -
18.10.2017 21:00:00 - - - - - - - -
18.10.2017 20:00:00 20,4 18,4 5 3 NO 1018,2 20 0
18.10.2017 19:00:00 21,4 18,8 8 4 NO 1018,1 20 48
18.10.2017 18:00:00 22,0 19,4 9 5 N 1018,0 20 60
18.10.2017 17:00:00 22,8 19,7 5 3 NO 1018,0 20 60
18.10.2017 16:00:00 23,0 19,9 5 3 N 1018,4 20 60
18.10.2017 15:00:00 22,6 18,2 0 0 N 1019,0 20 60
18.10.2017 14:00:00 23,0 18,9 0 0 N 1019,3 20 60
18.10.2017 13:00:00 23,0 19,9 8 4 SO 1020,4 20 60
18.10.2017 12:00:00 23,0 19,2 8 4 SSE 1020,4 20 60
18.10.2017 11:00:00 21,8 18,3 8 4 SSO 1020,5 20 60
18.10.2017 10:00:00 20,6 18,2 5 3 SSO 1020,7 20 60
18.10.2017 09:00:00 19,4 17,3 5 3 S 1020,6 20 60
18.10.2017 08:00:00 19,0 16,9 5 3 SSO 1020,5 20 6
18.10.2017 07:00:00 - - - - - - - -
18.10.2017 06:00:00 - - - - - - - -
18.10.2017 05:00:00 - - - - - - - -
18.10.2017 04:00:00 - - - - - - - -
18.10.2017 03:00:00 - - - - - - - -
18.10.2017 02:00:00 - - - - - - - -
18.10.2017 01:00:00 - - - - - - - -
18.10.2017 00:00:00 - - - - - - - -
17.10.2017 23:00:00 - - - - - - - -
17.10.2017 22:00:00 - - - - - - - -
17.10.2017 21:00:00 - - - - - - - -
17.10.2017 20:00:00 20,0 19,1 0 0 N 1022,9 20 0
17.10.2017 19:00:00 21,2 20,3 0 0 N 1022,7 20 36
17.10.2017 18:00:00 22,0 20,9 2 1 N 1023,0 20 36
17.10.2017 17:00:00 22,8 21,1 5 3 NNO 1023,2 20 60
17.10.2017 16:00:00 23,8 21,6 5 3 NO 1023,2 20 60
17.10.2017 15:00:00 23,4 20,9 9 5 NNO 1024,0 20 60
17.10.2017 14:00:00 23,0 20,1 9 5 NNO 1024,6 20 60
17.10.2017 13:00:00 23,8 20,4 5 3 NNE 1025,1 20 60
17.10.2017 12:00:00 22,6 19,7 5 3 N 1025,2 20 60
17.10.2017 11:00:00 21,4 19,1 0 0 N 1025,3 20 60
17.10.2017 10:00:00 20,4 18,3 5 3 S 1025,3 20 60
17.10.2017 09:00:00 19,0 16,9 5 3 S 1025,0 20 60
17.10.2017 08:00:00 19,0 17,2 5 3 S 1024,5 20 6
17.10.2017 07:00:00 - - - - - - - -
17.10.2017 06:00:00 - - - - - - - -
17.10.2017 05:00:00 - - - - - - - -
17.10.2017 04:00:00 - - - - - - - -
17.10.2017 03:00:00 - - - - - - - -
17.10.2017 02:00:00 - - - - - - - -
17.10.2017 01:00:00 - - - - - - - -
17.10.2017 00:00:00 - - - - - - - -
16.10.2017 23:00:00 - - - - - - - -
16.10.2017 22:00:00 - - - - - - - -
16.10.2017 21:00:00 - - - - - - - -
16.10.2017 20:00:00 20,6 19,7 0 0 N 1025,4 20 0
16.10.2017 19:00:00 21,0 19,3 4 2 NNE 1025,4 20 0
16.10.2017 18:00:00 22,4 20,1 5 3 N 1025,2 18 60
16.10.2017 17:00:00 23,0 19,8 5 3 NNE 1025,4 18 60
16.10.2017 16:00:00 23,0 19,8 4 2 NNE 1025,8 18 60
16.10.2017 15:00:00 23,2 20,7 5 3 NNE 1026,0 18 60
16.10.2017 14:00:00 23,8 21,0 9 5 NNE 1026,5 18 60
16.10.2017 13:00:00 23,8 21,3 9 5 N 1027,0 18 60
16.10.2017 12:00:00 24,0 21,2 8 4 N 1027,0 18 60
16.10.2017 11:00:00 22,6 20,3 4 2 N 1026,7 18 60
16.10.2017 10:00:00 21,4 19,4 5 3 N 1026,7 18 60
16.10.2017 09:00:00 20,0 18,2 8 4 NNE 1025,9 20 60
16.10.2017 08:00:00 18,8 16,7 5 3 NNE 1026,0 20 12
16.10.2017 07:00:00 - - - - - - - -
16.10.2017 06:00:00 - - - - - - - -
16.10.2017 05:00:00 - - - - - - - -
16.10.2017 04:00:00 - - - - - - - -
16.10.2017 03:00:00 - - - - - - - -
16.10.2017 02:00:00 - - - - - - - -
16.10.2017 01:00:00 - - - - - - - -
16.10.2017 00:00:00 - - - - - - - -
15.10.2017 23:00:00 - - - - - - - -
15.10.2017 22:00:00 - - - - - - - -
15.10.2017 21:00:00 - - - - - - - -
15.10.2017 20:00:00 20,4 18,9 8 4 N 1026,4 20 0
15.10.2017 19:00:00 21,4 18,6 5 3 N 1026,3 20 12
15.10.2017 18:00:00 22,6 21,1 9 5 NNE 1026,4 20 60
15.10.2017 17:00:00 24,0 20,3 5 3 NNE 1026,3 20 60
15.10.2017 16:00:00 24,2 22,1 8 4 N 1026,6 20 60
15.10.2017 15:00:00 24,2 21,5 8 4 N 1026,9 20 60
15.10.2017 14:00:00 24,2 21,7 8 4 N 1027,2 20 60
15.10.2017 13:00:00 23,2 20,9 5 3 N 1027,7 20 60
15.10.2017 12:00:00 23,0 20,5 9 5 NNE 1027,3 20 54
15.10.2017 11:00:00 22,6 20,0 5 3 NNE 1027,4 20 60
15.10.2017 10:00:00 21,4 19,5 4 2 N 1027,4 20 60
15.10.2017 09:00:00 20,0 18,3 4 2 N 1026,4 20 54
15.10.2017 08:00:00 18,8 17,7 4 2 N 1026,6 15 48
15.10.2017 07:00:00 - - - - - - - -
15.10.2017 06:00:00 - - - - - - - -
15.10.2017 05:00:00 - - - - - - - -
15.10.2017 04:00:00 - - - - - - - -
15.10.2017 03:00:00 - - - - - - - -
15.10.2017 02:00:00 - - - - - - - -
15.10.2017 01:00:00 - - - - - - - -
15.10.2017 00:00:00 - - - - - - - -
14.10.2017 23:00:00 - - - - - - - -
14.10.2017 22:00:00 - - - - - - - -
14.10.2017 21:00:00 - - - - - - - -
14.10.2017 20:00:00 19,8 19,1 5 3 NNE 1025,5 20 0
14.10.2017 19:00:00 20,2 19,2 8 4 NNE 1025,5 20 12
14.10.2017 18:00:00 21,8 19,2 9 5 N 1025,4 20 60
14.10.2017 17:00:00 22,4 19,4 9 5 N 1025,3 20 54
14.10.2017 16:00:00 23,6 19,5 16 9 NO 1025,3 20 60
14.10.2017 15:00:00 23,8 19,7 13 7 NNE 1025,3 20 42
14.10.2017 14:00:00 23,8 19,7 13 7 N 1025,1 20 42
14.10.2017 13:00:00 23,4 19,1 13 7 N 1025,2 20 60
14.10.2017 12:00:00 22,6 19,8 15 8 N 1026,1 20 54
14.10.2017 11:00:00 22,4 18,8 13 7 N 1025,9 20 42
14.10.2017 10:00:00 21,8 19,0 9 5 N 1025,3 20 60
14.10.2017 09:00:00 20,2 18,0 4 2 N 1025,2 20 60

tt = Temperatura
td = dewpoint
ff = velocità del vento
dd = direzione del vento
ppp = reduced air pressure
vv = visibility
sd = ore di luce

Stazioni seguenti

WeatherPro
AMSI
MeteoEarth